Location: Memphis
(29.8667°N, 31.2500°E)
Time: 06:58:10
(UTC+00:00)

Cosmos 2228 Rocket - Pass Details

Date: 03 March 2021
Orbit: 617 x 653 km, 82.5° (Epoch: 15 April)

Event Time Altitude Azimuth Distance (km) Brightness Sun altitude
Rises 16:09:23 0° 346° (NNW) 2,933 6.6 -3.8°
Reaches altitude 10° 16:11:42 10° 341° (NNW) 2,015 5.9 -4.3°
Maximum altitude 16:15:58 47° 268° (W) 835 4.4 -5.2°
Drops below altitude 10° 16:20:11 10° 194° (SSW) 1,984 5.9 -6.1°
Sets 16:22:27 0° 189° (S) 2,882 6.7 -6.6°
